Powrót do katalogu

DMSP 5D-2 F13 DEB

AktywnySSO
NORAD 40516·DEBRIS·🇺🇸 United States

Wystrzelony Mar 24, 1995 z Vandenberg Space Force Base

Loading…

Następne Przeloty (najbliższe 24 godziny)

TLE

ŚwieżeSource: Space-Track

Epoka: Sep 14, 2026, 01:41 UTC

1 40516U 95015DC  26257.07074070  .00002826  00000-0  94844-3 0  9993
2 40516  98.7801 295.8028 0022080 217.4711 142.4937 14.37915282595247

Śledź DMSP 5D-2 F13 DEB w czasie rzeczywistym z AllMySat

Download on the App Store